Measurement date,Total daily rainfall,Maximum daily air temperature,Minimum daily air temperature
Date ,Rainfall,Air temperature,Air temperature
Units: Year month day,Units: millimetre,Units: degree Celsius,Units: degree Celsius
2011-03-11,0,11.0,2.8
2011-03-12,0,14.7,6.4
2011-03-13,0.2,9.6,7.9
2011-03-14,0,11.5,-4.3
2011-03-15,0.2,12.9,5.0
2011-03-16,0,7.9,6.2
2011-03-17,0,10.2,2.6
2011-03-18,0.2,7.7,3.4
2011-03-19,0,12.2,-5.1
2011-03-20,0,12.6,-0.2
2011-03-21,0,14.8,5.9
2011-03-22,0,15.6,6.5
2011-03-23,0,16.8,0.4
2011-03-24,0,16.6,0.4
2011-03-25,0,17.0,-0.7
2011-03-26,0,13.4,1.8
2011-03-27,0,12.7,5.1
2011-03-28,0,14.1,-0.2
2011-03-29,1,14.8,1.5
2011-03-30,3,12.7,9.1
2011-03-31,0.2,17.0,8.7
2011-04-01,0,16.2,10.7
2011-04-02,0,17.3,11.6
2011-04-03,2,14.0,4.5
2011-04-04,1.4,13.1,3.8
2011-04-05,0,16.3,8.5
2011-04-06,0,22.2,10.3
2011-04-07,0,18.7,8.2
2011-04-08,0,20.3,3.5
2011-04-09,0,18.5,2.5
2011-04-10,0,19.4,1.0
2011-04-11,0.4,18.9,2.7
2011-04-12,0,13.3,3.7
2011-04-13,0,11.9,-0.6
2011-04-14,0,12.7,6.4
2011-04-15,0,16.4,7.4
2011-04-16,0,17.3,8.4
2011-04-17,0,18.2,3.9
2011-04-18,0,17.6,0.7
2011-04-19,0,21.3,2.4
2011-04-20,0,22.6,2.1
2011-04-21,0,23.2,5.1
2011-04-22,0,24.4,3.1
2011-04-23,0,26.1,5.5
2011-04-24,0,20.2,8.7
2011-04-25,0,19.8,4.9
2011-04-26,0,13.1,7.8
2011-04-27,0,14.8,7.3
2011-04-28,0.8,16.2,3.4
2011-04-29,0.6,19.0,8.0
2011-04-30,0,20.3,8.0
2011-05-01,0,18.7,5.6
2011-05-02,0,15.7,3.6
2011-05-03,0,14.7,0.7
2011-05-04,0,16.6,-3.0
2011-05-05,0,18.4,6.7
2011-05-06,1.6,23.5,9.8
2011-05-07,17.6,22.2,13.4
2011-05-08,0,18.8,14.3
2011-05-09,0,19.6,9.3
2011-05-10,0,19.5,7.7
2011-05-11,0,16.9,9.1
2011-05-12,0,17.2,6.5
2011-05-13,0,16.3,5.4
2011-05-14,2.2,16.3,5.1
2011-05-15,0,14.1,6.3
2011-05-16,0,19.0,10.3
2011-05-17,0.2,17.1,10.0
2011-05-18,0,17.4,12.2
2011-05-19,0,17.6,4.5
2011-05-20,0,18.0,6.9
2011-05-21,0.6,20.7,4.5
2011-05-22,0,17.7,8.9
2011-05-23,0.2,18.0,8.9
2011-05-24,0,18.2,6.1
2011-05-25,0.4,20.9,3.8
2011-05-26,8.6,15.2,9.7
2011-05-27,0.6,15.4,9.1
2011-05-28,0.2,16.8,8.3
2011-05-29,0,19.2,11.0
2011-05-30,5.2,15.6,12.4
2011-05-31,0,17.4,4.9
2011-06-01,0,19.1,4.0
2011-06-02,0,23.5,7.7
2011-06-03,0,24.2,9.0
2011-06-04,0,22.7,10.6
2011-06-05,10.2,16.4,10.4
2011-06-06,0,15.2,8.6
2011-06-07,0,17.3,8.5
2011-06-08,2,17.5,7.2
2011-06-09,0.8,17.5,8.4
2011-06-10,4.6,15.5,6.5
2011-06-11,0.4,17.7,7.4
2011-06-12,9.4,17.0,4.4
2011-06-13,0,20.0,10.8
2011-06-14,0,21.6,4.8
2011-06-15,0,19.7,13.4
2011-06-16,0.4,18.7,11.7
2011-06-17,7.8,15.8,8.7
2011-06-18,1,15.9,10.0
2011-06-19,0,18.1,9.1
2011-06-20,3.8,20.5,4.9
2011-06-21,0,20.7,13.5
2011-06-22,3.6,18.4,11.3
2011-06-23,0.2,18.6,11.1
2011-06-24,9.8,18.4,8.2
2011-06-25,0,21.7,10.3
2011-06-26,0,27.8,14.1
2011-06-27,0,28.9,18.3
2011-06-28,3.2,17.6,14.4
2011-06-29,0,19.4,7.1
2011-06-30,0,19.0,4.4
2011-07-01,0,20.3,4.6
2011-07-02,0,21.9,5.4
2011-07-03,0,23.1,7.5
2011-07-04,0,24.2,14.6
2011-07-05,3,24.1,8.2
2011-07-06,0.8,19.6,11.9
2011-07-07,1.2,19.5,13.1
2011-07-08,6.6,18.7,12.3
2011-07-09,0.2,21.4,11.5
2011-07-10,0.2,21.6,11.1
2011-07-11,0,22.7,9.1
2011-07-12,0,18.8,11.7
2011-07-13,0,17.5,11.2
2011-07-14,0,23.0,8.8
2011-07-15,10.8,23.0,6.6
2011-07-16,14.2,19.5,13.6
2011-07-17,1.2,20.1,11.6
2011-07-18,0.2,19.4,12.6
2011-07-19,3.6,20.6,10.7
2011-07-20,0.4,17.3,12.0
2011-07-21,0,18.4,11.7
2011-07-22,9,19.5,6.3
2011-07-23,0,18.5,9.2
2011-07-24,0,22.3,9.5
2011-07-25,0,21.7,5.6
2011-07-26,0,19.5,8.2
2011-07-27,0,20.2,11.3
2011-07-28,0.2,15.0,11.8
2011-07-29,0,17.6,14.6
2011-07-30,0,19.5,4.1
2011-07-31,0,24.4,8.4
2011-08-01,0,28.1,16.0
2011-08-02,2.4,28.1,14.0
2011-08-03,2.4,27.0,13.5
2011-08-04,7.6,19.6,15.1
2011-08-05,0,24.0,13.9
2011-08-06,0,19.4,13.1
2011-08-07,0,19.3,11.3
2011-08-08,0,20.8,8.2
2011-08-09,0.2,21.1,9.7
2011-08-10,0,22.9,5.6
2011-08-11,2.6,22.6,13.0
2011-08-12,3,20.9,14.3
2011-08-13,0,19.5,14.8
2011-08-14,0,21.1,12.9
2011-08-15,0,21.8,8.0
2011-08-16,0,22.3,12.2
2011-08-17,0.4,18.3,9.7
2011-08-18,9.8,14.1,6.3
2011-08-19,0,20.9,8.3
2011-08-20,0,21.3,12.4
2011-08-21,0,23.3,11.4
2011-08-22,1,23.6,6.8
2011-08-23,0.4,15.7,12.3
2011-08-24,0.8,21.5,11.6
2011-08-25,16.6,19.8,13.2
2011-08-26,14.4,14.2,11.7
2011-08-27,4.4,18.9,10.6
2011-08-28,0.4,18.1,11.3
2011-08-29,0,16.6,10.1
2011-08-30,0,15.5,11.2
2011-08-31,0,18.6,11.2
2011-09-01,0,20.6,4.6
2011-09-02,0,25.5,8.5
2011-09-03,0,21.4,12.5
2011-09-04,17.2,18.8,14.3
2011-09-05,3.4,18.7,9.8
2011-09-06,2.8,17.4,12.6
2011-09-07,1,17.4,10.9
2011-09-08,0,19.5,11.9
2011-09-09,0,21.0,12.7
2011-09-10,0.6,21.7,16.1
2011-09-11,2.2,19.4,13.0
2011-09-12,0.2,20.0,14.1
2011-09-13,3.8,17.6,10.5
2011-09-14,0,18.3,9.0
2011-09-15,0.2,19.2,4.2
2011-09-16,0,20.9,10.8
2011-09-17,3.8,17.2,12.7
2011-09-18,0.2,16.9,6.4
2011-09-19,0,18.4,8.3
2011-09-20,12.2,19.5,12.4
2011-09-21,0,17.1,11.3
2011-09-22,0.2,17.2,10.3
2011-09-23,0,18.3,8.7
2011-09-24,0,19.4,8.1
2011-09-25,2.6,20.2,11.4
2011-09-26,0,20.1,14.8
2011-09-27,0.2,21.7,11.3
2011-09-28,0.2,25.6,11.4
2011-09-29,0,27.2,13.6
2011-09-30,0,27.5,10.5
2011-10-01,0,27.5,10.1
2011-10-02,0,27.2,10.9
2011-10-03,0,25.6,16.1
2011-10-04,0,19.4,13.5
2011-10-05,0.8,19.6,14.5
2011-10-06,0.4,14.8,10.4
2011-10-07,0,16.2,7.1
2011-10-08,3.2,15.5,8.8
2011-10-09,0,18.7,10.5
2011-10-10,0,18.8,14.6
2011-10-11,0,18.4,15.1
2011-10-12,0,20.1,13.5
2011-10-13,0,16.5,12.3
2011-10-14,0.2,15.9,4.5
2011-10-15,0,17.1,-0.9
2011-10-16,0.2,17.9,2.2
2011-10-17,4,15.1,7.3
2011-10-18,0,12.6,6.0
2011-10-19,0.8,12.9,4.2
2011-10-20,0,12.2,1.4
2011-10-21,0,14.7,4.8
2011-10-22,0,14.1,6.2
2011-10-23,0,19.7,7.6
2011-10-24,0.6,16.4,10.6
2011-10-25,4,17.1,10.6
2011-10-26,6,13.7,5.1
2011-10-27,0.8,11.8,7.8
2011-10-28,0,15.0,3.6
2011-10-29,0,15.7,4.9
2011-10-30,0,16.4,10.6
2011-10-31,0.2,15.9,14.0
2011-11-01,0.2,16.1,9.3
2011-11-02,1.8,15.8,5.6
2011-11-03,12.6,17.0,9.7
2011-11-04,2.4,16.0,11.3
2011-11-05,0,13.1,8.0
2011-11-06,0,11.2,4.3
2011-11-07,1,11.0,4.6
2011-11-08,1.2,9.9,8.9
2011-11-09,0,14.6,8.8
2011-11-10,0.2,13.7,9.6
2011-11-11,1.6,12.1,7.7
2011-11-12,0,15.7,8.3
2011-11-13,0,15.8,10.0
2011-11-14,0,9.3,8.5
2011-11-15,0,11.5,7.1
2011-11-16,0,10.5,5.0
2011-11-17,0,13.3,5.2
2011-11-18,0,12.7,8.7
2011-11-19,0.4,12.6,6.3
2011-11-20,0,10.7,0.3
2011-11-21,5.6,11.3,2.4
2011-11-22,0,12.1,6.7
2011-11-23,0.2,10.0,-0.3
2011-11-24,0.6,12.9,2.8
2011-11-25,0.2,11.5,8.5
2011-11-26,0,12.5,5.8
2011-11-27,0,13.1,7.7
2011-11-28,0.8,12.5,-1.8
2011-11-29,1.2,12.6,-2.2
2011-11-30,0.8,11.7,4.5
2011-12-01,0,10.5,5.9
2011-12-02,2.2,10.5,0.5
2011-12-03,0,11.1,-0.3
2011-12-04,0.6,8.4,5.6
2011-12-05,0,6.0,0.2
2011-12-06,1.2,7.4,1.1
2011-12-07,0.2,8.2,1.7
2011-12-08,6.6,11.9,2.6
2011-12-09,0.8,7.2,2.2
2011-12-10,0,6.2,-0.3
2011-12-11,6.4,8.5,0.0
2011-12-12,12.6,11.1,1.6
2011-12-13,3,5.3,2.0
2011-12-14,2.6,5.2,1.3
2011-12-15,5.8,7.2,1.9
2011-12-16,5.8,4.0,-0.1
2011-12-17,0.8,5.7,-0.5
2011-12-18,0.6,3.9,-1.1
2011-12-19,5,6.5,-2.7
2011-12-20,2.4,9.0,2.3
2011-12-21,0,11.8,4.6
2011-12-22,0,11.9,7.3
2011-12-23,6.8,11.0,7.8
2011-12-24,0.2,9.5,2.2
2011-12-25,0,11.6,3.0
2011-12-26,0,11.8,9.4
2011-12-27,0,10.0,8.7
2011-12-28,0,9.8,6.9
2011-12-29,1.6,9.2,4.1
2011-12-30,4.4,10.7,4.2
2011-12-31,0,12.0,4.6
2012-01-01,0.4,11.6,10.0
2012-01-02,2.4,11.6,3.4
2012-01-03,8.4,11.9,3.3
2012-01-04,1.4,11.0,3.7
2012-01-05,0.2,9.1,4.4
2012-01-06,0.2,9.5,2.0
2012-01-07,0,10.1,2.6
2012-01-08,0,9.0,6.7
2012-01-09,0,11.6,6.7
2012-01-10,0,11.7,5.7
2012-01-11,0,11.6,6.2
2012-01-12,0.4,11.8,7.3
2012-01-13,0,6.5,0.2
2012-01-14,0.2,6.7,-6.5
2012-01-15,0,6.2,-6.1
2012-01-16,0.2,6.6,-7.3
2012-01-17,0.8,8.8,-5.9
2012-01-18,7,11.3,-3.5
2012-01-19,0.2,9.8,5.8
2012-01-20,2.8,10.4,3.5
2012-01-21,0,11.6,5.8
2012-01-22,0,10.9,4.3
2012-01-23,1.8,8.9,3.4
2012-01-24,2.6,9.4,0.1
2012-01-25,4.2,9.5,3.5
2012-01-26,1.2,8.0,5.2
2012-01-27,0,8.3,1.0
2012-01-28,0.4,6.9,1.9
2012-01-29,0.2,3.2,-1.1
2012-01-30,0,3.4,-1.4
2012-01-31,0,2.1,-0.3
2012-02-01,0,2.4,-3.8
2012-02-02,0,1.5,-6.1
2012-02-03,0,1.5,-10.2
2012-02-04,0,1.1,-10.0
2012-02-05,4.4,1.5,-5.8
2012-02-06,5,3.1,-1.2
2012-02-07,0.6,4.3,0.0
2012-02-08,0,-0.6,-6.5
2012-02-09,0,-0.7,-2.6
2012-02-10,1.2,1.2,-3.5
2012-02-11,0.2,0.5,-15.3
2012-02-12,1.6,3.7,-11.8
2012-02-13,0.2,5.9,0.5
2012-02-14,0.2,8.0,1.4
2012-02-15,0,10.4,2.6
2012-02-16,0,10.2,4.8
2012-02-17,0.2,11.9,6.0
2012-02-18,3,9.0,6.8
2012-02-19,0,6.4,-0.3
2012-02-20,0.2,8.0,-4.4
2012-02-21,0,11.8,2.2
2012-02-22,0.6,11.7,6.8
2012-02-23,0,15.3,8.1
2012-02-24,0,14.2,8.1
2012-02-25,0,10.9,3.8
2012-02-26,0,12.2,-0.8
2012-02-27,1,11.3,3.5
2012-02-28,0,10.7,7.7
2012-02-29,0.2,11.7,7.8
2012-03-01,0.2,13.0,1.6
2012-03-02,0,11.9,-0.5
2012-03-03,3,14.0,3.2
2012-03-04,19.2,7.7,4.7
2012-03-05,0,9.1,1.4
2012-03-06,0,10.3,-1.5
2012-03-07,2,10.7,2.2
2012-03-08,0,11.8,1.2
